date,time,DOY,Ta_1_1_1,RH_1_1_1,LWin_1_1_1,LWout_1_1_1,SWin_1_1_1,SWout_1_1_1,PPFD_1_1_1,SWC_1_1_1,Ts_1_1_1
[yyyy-mm-dd],[HH:MM],[ddd.ddd],[K],[%],[W+1m-2],[W+1m-2],[W+1m-2],[W+1m-2],[µmol+1m-2s-1],[m+3m-3],[K]
2014-04-23,00:30,113.020,274.42099999999999,62.492000000000004,-9999.0,-9999.0,0.85000000000000009,-4.6493333333333347,-1.70000000000000012E-002,0.38000000000000017,273.36033333333324
2014-04-23,01:00,113.041,274.45666666666671,62.100666666666669,-9999.0,-9999.0,0.65533333333333355,-4.6523333333333321,-2.36666666666666796E-002,0.38000000000000017,273.35599999999999
2014-04-23,01:30,113.062,274.12266666666676,63.487000000000002,-9999.0,-9999.0,0.52399999999999980,-4.7986666666666657,-2.43333333333333388E-002,0.38000000000000017,273.35833333333329
2014-04-23,02:00,113.083,274.11933333333332,63.413999999999987,-9999.0,-9999.0,0.81100000000000005,-4.5243333333333329,-2.83333333333333423E-002,0.38000000000000017,273.35899999999998
2014-04-23,02:30,113.104,274.31333333333339,62.441666666666670,-9999.0,-9999.0,0.86333333333333329,-4.6073333333333339,-2.33333333333333413E-002,0.38000000000000017,273.36233333333331
2014-04-23,03:00,113.124,274.15933333333328,63.067666666666661,-9999.0,-9999.0,0.56933333333333314,-4.6956666666666678,-1.10000000000000028E-002,0.38000000000000017,273.36033333333330
2014-04-23,03:30,113.145,273.38500000000005,66.605999999999980,-9999.0,-9999.0,0.22133333333333335,-4.7830000000000004,-1.93333333333333343E-002,0.38000000000000017,273.35900000000004
2014-04-23,04:00,113.166,273.39100000000002,66.387666666666675,-9999.0,-9999.0,0.35366666666666668,-4.6173333333333328,-2.16666666666666709E-002,0.38000000000000017,273.36200000000002
2014-04-23,04:30,113.187,273.83666666666670,64.165999999999997,-9999.0,-9999.0,0.67166666666666686,-4.4043333333333345,6.99999999999999754E-003,0.38000000000000017,273.36233333333325
2014-04-23,05:00,113.208,273.92833333333340,63.897333333333343,-9999.0,-9999.0,0.36533333333333334,-2.9363333333333328,3.5776666666666666,0.38000000000000017,273.36299999999994
2014-04-23,05:30,113.229,274.38266666666664,62.552666666666674,-9999.0,-9999.0,7.4826666666666659,30.178999999999998,46.957333333333331,0.38000000000000017,273.35999999999996
2014-04-23,06:00,113.249,274.42933333333332,61.874999999999993,-9999.0,-9999.0,19.777666666666669,105.00666666666666,166.57066666666665,0.38000000000000017,273.36466666666661
2014-04-23,06:30,113.270,275.45933333333329,58.643666666666654,-9999.0,-9999.0,36.283999999999999,212.60566666666662,359.41933333333338,0.38000000000000017,273.36133333333328
2014-04-23,07:00,113.291,276.05933333333343,56.777000000000008,-9999.0,-9999.0,41.345666666666666,265.24133333333333,476.15933333333328,0.37966666666666682,273.36233333333337
2014-04-23,07:30,113.312,275.94766666666669,58.175333333333342,-9999.0,-9999.0,51.770000000000010,333.40333333333336,617.70333333333315,0.38000000000000017,273.36366666666669
2014-04-23,08:00,113.333,276.43966666666671,55.460333333333331,-9999.0,-9999.0,66.809999999999988,429.73433333333327,807.79733333333343,0.37799999999999989,273.36366666666657
2014-04-23,08:30,113.354,276.82600000000002,53.061666666666682,-9999.0,-9999.0,84.159999999999997,535.92600000000004,1018.8863333333334,0.37199999999999983,273.36266666666666
2014-04-23,09:00,113.374,277.60433333333339,50.166666666666657,-9999.0,-9999.0,89.533333333333346,565.51700000000017,1092.8173333333334,0.36999999999999983,273.36099999999993
2014-04-23,09:30,113.395,278.02233333333334,44.439999999999991,-9999.0,-9999.0,108.65733333333333,678.12900000000002,1306.2360000000001,0.36999999999999983,273.36499999999995
2014-04-23,10:00,113.416,278.46366666666665,41.428333333333327,-9999.0,-9999.0,119.77933333333331,740.68866666666656,1439.4273333333333,0.36999999999999983,273.36766666666665
2014-04-23,10:30,113.437,279.02700000000004,38.188333333333318,-9999.0,-9999.0,123.49066666666664,759.21666666666670,1484.7706666666668,0.36999999999999983,273.36233333333331
2014-04-23,11:00,113.458,279.72733333333326,35.640333333333324,-9999.0,-9999.0,114.35799999999999,706.23866666666663,1396.1456666666668,0.36999999999999983,273.36700000000002
2014-04-23,11:30,113.479,280.30633333333338,31.101333333333343,-9999.0,-9999.0,114.68166666666666,711.72100000000000,1413.2063333333333,0.36999999999999983,273.36533333333330
2014-04-23,12:00,113.499,280.65633333333329,30.725000000000001,-9999.0,-9999.0,113.15600000000002,704.92466666666655,1406.7053333333331,0.37533333333333357,273.36699999999996
2014-04-23,12:30,113.520,281.09666666666669,29.500333333333334,-9999.0,-9999.0,99.916333333333313,631.04600000000005,1272.3440000000003,0.38000000000000017,273.36533333333330
2014-04-23,13:00,113.541,281.35933333333344,27.604000000000003,-9999.0,-9999.0,115.20033333333332,728.37733333333347,1457.9579999999999,0.38000000000000017,273.36399999999992
2014-04-23,13:30,113.562,281.62033333333341,23.650666666666670,-9999.0,-9999.0,116.81966666666666,741.91399999999999,1485.4289999999999,0.38600000000000007,273.36233333333337
2014-04-23,14:00,113.583,281.87900000000002,26.150333333333336,-9999.0,-9999.0,105.54700000000000,681.11166666666679,1367.0613333333329,0.39000000000000007,273.35966666666661
2014-04-23,14:30,113.604,282.28866666666670,24.393666666666661,-9999.0,-9999.0,95.055000000000007,618.26266666666675,1247.0333333333333,0.39066666666666677,273.35999999999996
2014-04-23,15:00,113.624,282.68833333333339,24.137000000000000,-9999.0,-9999.0,94.403999999999996,621.45433333333312,1247.0876666666666,0.40000000000000019,273.35933333333338
2014-04-23,15:30,113.645,282.87399999999997,24.558333333333334,-9999.0,-9999.0,80.139666666666685,533.82700000000011,1066.1840000000000,0.40000000000000019,273.36066666666659
2014-04-23,16:00,113.666,282.88800000000003,24.311000000000000,-9999.0,-9999.0,48.491666666666667,320.55766666666659,651.52833333333353,0.40566666666666673,273.35833333333341
2014-04-23,16:30,113.687,283.11899999999997,25.157333333333334,-9999.0,-9999.0,44.636666666666670,290.29433333333333,589.66799999999989,0.41000000000000009,273.35500000000008
2014-04-23,17:00,113.708,283.11966666666666,26.213999999999999,-9999.0,-9999.0,30.530333333333335,199.42199999999997,408.72866666666670,0.41000000000000009,273.35200000000009
2014-04-23,17:30,113.729,283.11766666666671,26.165333333333329,-9999.0,-9999.0,21.915333333333333,141.76666666666668,290.68166666666667,0.41000000000000009,273.35133333333346
2014-04-23,18:00,113.749,282.76700000000005,27.118666666666670,-9999.0,-9999.0,11.271333333333335,72.873999999999995,152.66633333333331,0.41000000000000009,273.35066666666677
2014-04-23,18:30,113.770,282.29766666666666,27.844666666666665,-9999.0,-9999.0,4.7000000000000011,31.109333333333328,68.780333333333331,0.41000000000000009,273.35466666666673
2014-04-23,19:00,113.791,281.75800000000004,28.687000000000001,-9999.0,-9999.0,0.53100000000000025,4.0590000000000002,17.361000000000001,0.40933333333333344,273.35233333333332
2014-04-23,19:30,113.812,281.15800000000013,29.832333333333327,-9999.0,-9999.0,-0.62600000000000000,-3.3860000000000001,0.97266666666666635,0.40066666666666689,273.35366666666670
2014-04-23,20:00,113.833,280.51500000000004,32.125666666666667,-9999.0,-9999.0,-0.81199999999999994,-3.1520000000000006,-2.63333333333333405E-002,0.40000000000000019,273.35566666666665
2014-04-23,20:30,113.854,280.21766666666662,32.374333333333333,-9999.0,-9999.0,-0.71499999999999986,-2.7383333333333328,-4.96666666666666992E-002,0.40000000000000019,273.35433333333344
2014-04-23,21:00,113.874,279.72933333333333,33.999000000000002,-9999.0,-9999.0,-0.75866666666666682,-2.6436666666666659,-4.43333333333333565E-002,0.40000000000000019,273.35633333333328
2014-04-23,21:30,113.895,279.18266666666671,38.119999999999990,-9999.0,-9999.0,-0.71366666666666667,-2.1273333333333335,-3.40000000000000163E-002,0.40000000000000019,273.35766666666660
2014-04-23,22:00,113.916,278.66133333333335,39.332666666666675,-9999.0,-9999.0,-0.70066666666666655,-2.0373333333333337,-3.00000000000000128E-002,0.40000000000000019,273.35833333333329
2014-04-23,22:30,113.937,278.25733333333335,35.487333333333339,-9999.0,-9999.0,-0.61033333333333339,-1.9189999999999996,-4.30000000000000174E-002,0.40000000000000019,273.35899999999998
2014-04-23,23:00,113.958,277.91366666666664,32.979333333333336,-9999.0,-9999.0,-0.65500000000000003,-1.9320000000000002,-3.66666666666666877E-002,0.39733333333333359,273.35899999999998
2014-04-23,23:30,113.979,277.55166666666668,31.170666666666666,-9999.0,-9999.0,-0.72533333333333339,-1.8606666666666667,-3.60000000000000112E-002,0.39000000000000007,273.36300000000000
2014-04-24,00:00,114.000,277.19700000000006,31.896666666666668,-9999.0,-9999.0,-0.68533333333333357,-1.6879999999999999,-4.70000000000000279E-002,0.39000000000000007,273.36000000000001
